Hourly Data Report for September 06, 2017

All times are specified in Local Standard Time (LST). Add 1 hour to adjust for Daylight Saving Time where and when it is observed.

BUCTOUCHE CDA CS
NEW BRUNSWICK

46°25'49.006" N
64°46'05.009" W
35.90 m
8100593
71666
ABT

Download Data

Hourly Data (September 2017)
Hourly Data Report for September 6, 2017
Temp Definition
°C
Dew Point Temp Definition
°C
Rel Hum Definition
%
Wind Dir Definition
10's deg

Wind Spd Definition
km/h
Visibility Definition
km
Stn Press Definition
kPa
Hmdx Definition


Wind Chill Definition


Weather Definition


TIME
00:00 19.9 17.0 83 20 15   100.58     LegendNANA
01:00 19.9 16.4 80 21 16   100.64     LegendNANA
02:00 19.5 16.0 80 20 18   100.61     LegendNANA
03:00 19.3 16.0 81 21 14   100.64     LegendNANA
04:00 19.6 15.9 79 20 17   100.64     LegendNANA
05:00 19.9 16.1 79 20 16   100.67     LegendNANA
06:00 19.9 16.3 80 20 20   100.77     LegendNANA
07:00 19.9 16.8 82 21 17   100.89     LegendNANA
08:00 20.1 17.1 83 21 16   100.93 25   LegendNANA
09:00 20.4 17.3 82 21 16   100.99 26   LegendNANA
10:00 21.7 17.8 79 21 13   101.02 28   LegendNANA
11:00 23.3 18.1 73 21 16   101.04 29   LegendNANA
12:00 24.1 18.1 69 22 15   101.06 30   LegendNANA
13:00 24.9 18.3 67 18 14   101.03 31   LegendNANA
14:00 22.6 19.1 81 18 18   101.03 29   LegendNANA
15:00 24.4 19.4 74 19 12   100.99 31   LegendNANA
16:00 22.0 20.2 90 19 8   101.01 30   LegendNANA
17:00 20.7 19.1 91 18 12   101.03 28   LegendNANA
18:00 20.0 18.9 93 18 8   101.04 27   LegendNANA
19:00 19.8 18.4 92 19 15   101.06     LegendNANA
20:00 20.1 18.1 88 20 16   101.08 26   LegendNANA
21:00 19.7 18.3 92 18 10   101.10     LegendNANA
22:00 19.6 18.4 93 20 6   101.12     LegendNANA
23:00 19.5 18.2 93 18 8   101.08     LegendNANA

Notes on Data Quality.

Legend

  • E = Estimated
  • M = Missing
  • NA = Not Available
  • ‡ = Partner data that is not subject to review by the National Climate Archives
Date modified: